Wind_Speed
12 15 18 21 24 27 30 34 37 40 42 45 46 48 49 52 54 57 60 62 63 65 67 71 76 81 87 92 93 91 86 83 80 77 72 67 64 61 58 58 57 55 54
15 18 21 24 26 29 32 35 38 42 45 47 49 51 53 54 57 59 62 64 66 67 70 73 78 84 89 91 90 87 83 80 77 76 73 67 58 53 52 53 53 52 50
18 20 23 26 28 31 34 37 40 43 46 49 52 54 55 57 59 62 65 67 69 70 72 76 80 86 89 89 87 84 81 77 74 74 73 69 61 53 45 44 46 48 46
20 23 25 28 30 33 36 39 41 45 48 51 53 56 58 59 61 64 67 69 71 72 74 77 82 86 88 87 84 80 78 76 73 70 69 66 63 58 49 39 39 42 42
24 26 28 30 33 36 38 41 43 46 49 52 55 57 59 61 63 65 68 71 72 74 76 79 83 86 87 84 80 78 76 74 73 69 66 62 58 56 54 45 36 34 36
27 29 31 33 36 38 41 43 45 48 50 53 55 58 60 63 65 67 69 72 74 75 77 80 83 85 84 81 78 75 73 72 70 68 65 61 57 53 50 46 38 32 29
31 32 34 36 38 41 43 45 47 49 51 54 56 58 60 63 66 68 70 73 74 76 78 81 83 84 82 78 75 73 71 70 68 65 63 60 56 54 51 47 39 31 26
34 34 36 38 40 43 45 47 49 51 53 55 57 58 61 63 66 69 71 73 75 76 78 80 82 82 80 76 73 71 70 68 66 63 61 58 55 53 51 47 41 31 23
36 37 38 40 42 45 47 49 51 53 54 55 57 59 61 63 66 69 71 73 75 77 78 80 82 81 78 74 71 69 68 66 64 61 58 56 54 52 50 46 42 34 24
39 40 41 42 45 47 50 51 53 55 56 56 57 59 61 63 65 69 72 73 75 77 78 79 81 80 77 73 69 68 66 64 62 59 56 54 52 51 48 45 41 35 27
41 42 44 45 47 49 52 54 56 57 58 57 58 59 60 62 65 68 72 73 75 76 77 78 79 78 76 71 68 66 65 63 60 57 54 53 51 50 47 44 41 36 30
44 45 47 48 50 52 54 56 58 59 59 58 58 59 60 62 64 67 71 73 74 75 76 77 78 77 74 70 67 65 64 61 58 54 52 51 49 48 46 43 40 36 31
47 48 49 51 52 54 55 58 59 60 59 58 58 58 60 61 64 66 70 73 74 75 75 76 77 76 73 69 66 64 63 60 57 53 50 48 47 46 45 43 39 35 31
49 51 52 53 54 55 57 59 60 59 59 58 58 58 60 61 63 66 69 72 73 74 74 74 76 75 72 68 65 63 62 59 56 52 49 47 45 44 44 42 39 35 31
51 52 53 54 55 56 57 59 59 59 58 58 58 58 59 61 63 66 69 71 72 73 73 73 74 74 71 67 64 62 61 59 56 52 48 45 43 42 42 41 38 34 30
51 53 54 55 55 57 58 59 59 58 58 59 59 59 60 61 63 65 68 70 71 72 72 72 72 72 70 66 63 61 60 59 56 52 47 44 42 41 40 40 38 35 31
52 53 54 55 56 57 58 59 58 59 59 59 60 59 61 62 64 65 67 69 69 70 71 70 70 70 69 65 61 59 59 58 55 52 48 43 41 39 38 38 37 35 31
53 54 56 57 58 58 59 59 59 60 61 61 61 61 62 63 64 66 67 68 68 69 69 69 68 68 67 64 60 57 57 56 55 52 48 43 40 38 37 36 36 34 32
56 58 59 60 60 60 60 61 61 62 63 63 62 62 64 65 65 66 66 67 67 67 68 68 66 66 66 63 59 56 55 54 53 51 49 44 39 37 36 35 34 33 32
60 61 61 62 62 63 63 63 63 63 65 64 64 64 64 66 66 66 65 65 66 66 66 66 65 64 64 62 59 56 54 53 51 50 48 45 39 36 34 34 33 32 30
63 64 64 65 65 65 65 65 65 65 65 65 64 64 64 65 65 64 64 64 64 64 63 63 63 62 62 61 58 55 53 51 50 49 47 44 40 35 33 33 33 32 30
66 67 67 67 66 66 66 66 66 66 66 65 64 64 64 63 63 62 62 63 62 61 61 61 61 60 60 59 56 54 52 51 49 48 46 44 40 35 32 32 32 31 30
66 67 67 66 65 64 64 64 64 65 64 63 63 63 62 61 61 60 60 61 59 58 58 59 58 58 58 57 55 52 50 49 48 47 46 44 41 36 32 30 30 30 29
63 63 62 60 60 60 60 59 60 61 61 60 60 59 59 58 58 57 58 59 57 56 55 56 55 55 55 54 53 50 48 47 47 46 45 44 42 38 33 30 29 29 28
56 56 57 57 56 57 56 56 56 56 56 55 55 55 55 55 55 54 54 55 55 53 52 53 53 52 52 52 50 47 45 45 45 44 44 43 42 39 35 30 27 27 27
52 53 53 53 52 52 52 51 51 51 51 51 51 51 52 52 51 50 49 50 51 50 49 50 50 50 50 50 48 46 44 43 43 43 42 42 40 38 35 30 26 25 24
Wind_Direction
338 343 346 347 348 348 347 346 346 345 343 342 340 338 337 335 334 334 334 333 331 329 327 326 326 327 328 328 328 327 325 324 322 321 319 317 313 308 302 296 291 283 273
330 335 339 341 343 344 344 344 344 343 343 342 341 340 338 336 335 334 334 334 332 331 330 329 329 330 331 331 330 329 328 327 326 324 323 322 318 312 307 300 296 290 281
324 328 332 335 337 339 340 341 341 341 341 341 340 340 338 336 335 335 334 334 334 333 332 331 332 333 334 333 332 331 330 330 329 327 326 325 324 319 314 305 300 296 292
319 323 326 329 332 334 336 337 338 339 340 340 339 339 338 336 335 335 335 335 335 335 334 333 334 335 336 335 333 332 332 332 332 331 330 328 327 325 323 315 305 300 298
314 318 321 325 327 330 333 335 336 337 338 338 337 337 337 336 336 336 336 336 336 336 336 335 336 337 338 337 335 334 334 334 334 334 333 332 330 328 326 324 314 303 299
311 314 317 321 324 327 329 332 334 334 335 335 335 335 335 335 336 336 336 337 337 337 337 337 338 339 339 338 336 336 336 336 336 336 335 335 334 332 329 327 322 310 299
308 311 315 318 321 324 326 329 331 332 333 333 333 333 334 335 336 336 336 337 338 339 339 339 340 341 340 339 338 337 337 337 337 337 337 337 338 336 334 331 327 317 303
305 308 312 315 318 320 323 325 328 329 330 331 331 332 332 334 335 336 337 337 339 339 340 340 341 342 342 341 339 339 339 338 339 339 339 340 340 340 338 335 331 325 308
302 305 309 312 315 318 320 323 325 326 328 329 330 330 331 332 334 336 337 338 339 340 340 341 343 343 343 342 341 340 340 340 340 340 340 342 343 343 341 338 335 331 321
299 303 307 310 313 316 318 320 322 324 325 327 328 328 329 331 333 335 337 338 339 340 341 342 344 344 344 343 343 342 342 341 340 341 342 343 344 344 343 341 338 333 328
298 301 305 308 311 313 315 317 320 322 323 325 326 327 328 329 332 334 336 338 339 340 341 342 344 345 345 344 344 343 343 343 342 341 342 343 344 345 345 343 340 335 330
298 300 303 306 308 311 313 315 317 319 321 323 324 325 326 328 330 333 336 337 338 340 341 342 345 346 346 345 345 345 345 344 343 342 342 344 345 346 346 345 342 339 333
297 299 302 304 306 308 310 313 315 317 319 321 322 323 325 326 328 331 335 336 338 339 341 343 345 347 347 346 346 346 346 346 345 343 343 344 345 347 347 346 344 341 336
296 298 300 302 304 306 308 310 313 315 317 319 320 321 323 324 327 330 333 335 337 339 341 343 345 347 347 347 346 346 347 347 346 344 344 344 345 347 348 347 345 343 338
294 297 299 300 302 304 306 308 311 313 315 317 318 319 321 323 325 328 331 334 336 338 340 343 345 347 348 347 347 346 347 348 348 347 345 345 346 347 348 349 347 344 341
294 295 297 298 300 302 305 307 310 312 314 315 316 317 319 321 323 327 330 332 335 337 339 342 345 347 349 348 347 346 347 349 349 349 346 345 347 348 348 348 348 345 342
292 293 294 296 298 301 304 306 309 311 312 313 314 316 317 319 322 325 328 331 333 336 338 342 344 347 349 348 348 347 347 349 350 350 348 346 347 348 349 349 349 347 342
291 292 293 296 298 301 303 306 308 309 310 312 313 315 316 318 321 324 326 329 331 334 337 341 344 347 349 349 348 348 348 349 350 350 350 348 347 348 350 350 349 348 345
291 292 294 296 299 301 303 305 307 308 309 310 312 313 315 317 320 323 325 327 330 332 336 339 343 346 348 349 349 349 349 349 350 350 351 350 348 348 350 351 351 350 347
291 293 295 297 299 300 302 303 304 305 306 308 310 311 313 316 319 322 324 325 328 330 334 338 342 346 348 349 349 349 350 350 351 351 351 351 350 349 350 353 354 353 350
292 294 296 297 298 300 301 302 303 303 305 307 308 310 312 314 317 320 322 324 326 328 332 336 341 345 348 349 349 349 350 351 352 352 352 352 351 349 351 354 356 356 354
294 295 296 297 298 299 300 301 302 302 304 305 307 309 311 314 316 319 321 322 324 327 331 335 340 344 348 349 350 349 350 352 352 353 354 354 354 352 353 356 358 359 358
294 295 296 297 298 298 299 300 301 301 303 304 306 308 310 312 315 318 320 321 322 325 329 334 339 343 347 349 350 350 350 352 353 353 355 356 357 356 356 358 360 1 1
295 295 296 297 298 298 299 300 300 301 303 304 306 307 310 312 314 317 319 319 320 322 327 332 338 343 346 349 350 350 350 351 353 354 355 356 358 360 0 0 1 2 3
296 297 297 298 299 298 298 299 300 301 303 305 306 308 310 312 314 316 318 319 318 320 325 331 336 342 346 349 350 350 350 351 353 354 356 358 0 1 1 0 1 3 5
298 299 299 301 301 301 300 300 300 301 303 305 308 310 312 313 314 317 319 319 318 319 323 329 335 340 345 349 350 350 350 351 353 355 357 359 1 2 2 2 3 5 7
Height
5844 5840 5835 5831 5826 5821 5815 5809 5803 5796 5789 5782 5774 5765 5757 5748 5739 5729 5718 5707 5696 5684 5671 5657 5641 5624 5605 5583 5560 5537 5514 5492 5470 5452 5437 5423 5405 5388 5374 5363 5355 5350 5347
5839 5835 5831 5826 5821 5816 5810 5803 5797 5790 5782 5774 5766 5757 5748 5739 5729 5718 5707 5695 5683 5670 5656 5641 5624 5606 5585 5563 5539 5517 5496 5476 5453 5433 5416 5404 5394 5378 5362 5348 5338 5331 5326
5835 5830 5826 5821 5816 5810 5804 5798 5790 5783 5775 5766 5758 5749 5739 5729 5719 5708 5696 5683 5670 5656 5641 5625 5608 5588 5567 5544 5522 5500 5479 5461 5442 5418 5398 5381 5371 5363 5354 5338 5326 5316 5309
5830 5826 5821 5816 5810 5804 5798 5791 5783 5776 5767 5759 5749 5740 5730 5720 5709 5697 5684 5671 5657 5643 5627 5610 5592 5572 5550 5528 5506 5485 5464 5445 5429 5410 5389 5369 5352 5341 5335 5330 5317 5305 5296
5825 5820 5815 5810 5804 5798 5791 5784 5776 5768 5759 5750 5741 5731 5721 5710 5699 5686 5673 5659 5645 5630 5614 5596 5578 5557 5536 5514 5492 5472 5452 5433 5415 5398 5381 5364 5347 5330 5317 5313 5308 5298 5289
5819 5814 5809 5803 5797 5790 5783 5776 5768 5760 5751 5742 5733 5723 5712 5701 5689 5676 5663 5648 5633 5617 5601 5583 5564 5544 5522 5501 5481 5461 5442 5423 5405 5388 5371 5355 5340 5326 5312 5302 5295 5289 5283
5812 5807 5802 5796 5789 5782 5775 5768 5761 5752 5743 5734 5724 5714 5703 5691 5679 5666 5652 5638 5622 5606 5589 5571 5552 5531 5511 5491 5471 5452 5434 5415 5398 5381 5364 5348 5332 5318 5305 5295 5287 5280 5275
5805 5800 5794 5788 5782 5775 5768 5760 5752 5744 5735 5725 5715 5705 5694 5682 5669 5656 5642 5627 5612 5595 5578 5560 5541 5521 5501 5481 5462 5443 5425 5408 5391 5374 5358 5343 5328 5313 5299 5288 5280 5274 5269
5797 5792 5787 5781 5774 5767 5759 5752 5744 5735 5726 5716 5706 5696 5684 5672 5660 5647 5633 5618 5602 5585 5568 5550 5532 5512 5492 5473 5454 5436 5418 5401 5385 5369 5354 5338 5324 5310 5297 5285 5275 5268 5264
5789 5784 5779 5773 5766 5758 5751 5743 5735 5726 5717 5707 5697 5686 5675 5663 5651 5638 5624 5608 5593 5576 5559 5541 5523 5504 5484 5465 5448 5430 5413 5396 5380 5365 5350 5336 5322 5308 5295 5283 5273 5264 5259
5781 5775 5770 5764 5757 5750 5742 5733 5725 5716 5707 5698 5687 5677 5666 5654 5642 5629 5615 5599 5583 5567 5550 5533 5515 5496 5477 5459 5442 5425 5408 5392 5376 5361 5347 5333 5319 5306 5294 5282 5271 5262 5255
5771 5766 5760 5754 5748 5740 5732 5724 5715 5706 5697 5688 5678 5668 5657 5645 5633 5620 5606 5591 5575 5559 5542 5525 5507 5489 5471 5453 5437 5420 5404 5388 5373 5358 5344 5331 5317 5305 5292 5281 5270 5261 5253
5761 5756 5750 5744 5738 5730 5722 5714 5705 5696 5687 5678 5668 5658 5647 5636 5624 5611 5597 5582 5567 5551 5534 5518 5500 5483 5465 5448 5431 5416 5400 5384 5369 5355 5342 5329 5316 5304 5291 5280 5269 5260 5252
5751 5745 5740 5734 5727 5720 5712 5703 5695 5687 5678 5669 5659 5649 5638 5627 5615 5602 5589 5574 5559 5544 5527 5511 5494 5477 5460 5443 5427 5411 5396 5381 5366 5352 5339 5327 5314 5303 5291 5279 5269 5260 5252
5740 5734 5729 5722 5715 5708 5701 5693 5685 5676 5668 5659 5649 5639 5628 5617 5605 5593 5580 5567 5552 5537 5521 5504 5488 5471 5455 5438 5423 5408 5394 5379 5364 5350 5336 5324 5312 5301 5290 5279 5269 5260 5252
5728 5722 5716 5710 5704 5697 5690 5682 5674 5666 5657 5648 5639 5629 5618 5607 5596 5584 5572 5559 5545 5530 5515 5499 5482 5466 5450 5434 5418 5404 5389 5375 5361 5347 5334 5322 5311 5300 5289 5278 5268 5259 5251
5715 5709 5703 5698 5692 5685 5678 5671 5663 5655 5646 5637 5628 5618 5608 5597 5586 5575 5564 5551 5537 5523 5508 5493 5477 5461 5445 5430 5415 5400 5386 5372 5358 5345 5333 5321 5310 5299 5289 5278 5268 5258 5250
5702 5696 5691 5685 5680 5673 5667 5660 5652 5644 5635 5626 5617 5607 5597 5587 5577 5567 5556 5543 5530 5517 5502 5487 5472 5457 5442 5427 5413 5398 5384 5370 5356 5344 5331 5320 5309 5298 5288 5278 5268 5258 5250
5689 5683 5678 5673 5667 5661 5654 5647 5640 5631 5622 5614 5606 5596 5587 5577 5568 5558 5547 5536 5523 5510 5497 5483 5468 5453 5438 5424 5410 5396 5382 5368 5355 5342 5330 5319 5308 5298 5288 5278 5268 5258 5249
5676 5670 5665 5660 5654 5648 5641 5634 5626 5618 5610 5602 5594 5585 5576 5567 5558 5549 5539 5528 5516 5503 5491 5477 5463 5449 5435 5421 5407 5394 5381 5368 5355 5342 5329 5317 5306 5296 5287 5277 5268 5258 5250
5662 5657 5651 5646 5640 5634 5627 5619 5612 5604 5596 5590 5582 5574 5566 5557 5549 5540 5530 5520 5509 5497 5485 5472 5459 5446 5432 5418 5404 5391 5379 5366 5354 5341 5329 5317 5306 5296 5286 5277 5267 5258 5250
5648 5642 5636 5631 5625 5619 5611 5605 5598 5590 5583 5576 5569 5562 5555 5547 5539 5531 5522 5512 5501 5490 5478 5466 5453 5440 5428 5414 5401 5389 5376 5364 5352 5341 5329 5318 5306 5296 5286 5277 5268 5259 5251
5632 5626 5620 5615 5610 5603 5596 5590 5584 5576 5570 5563 5557 5550 5544 5536 5529 5521 5513 5504 5494 5483 5472 5461 5448 5436 5423 5411 5399 5387 5374 5363 5351 5340 5329 5317 5306 5296 5286 5277 5269 5261 5253
5616 5610 5604 5599 5594 5588 5582 5576 5569 5563 5557 5551 5545 5539 5532 5526 5519 5512 5504 5495 5486 5476 5466 5455 5443 5432 5420 5408 5396 5384 5373 5362 5350 5339 5328 5317 5306 5296 5286 5278 5270 5263 5255
5601 5595 5589 5584 5579 5573 5568 5562 5556 5550 5545 5539 5534 5528 5521 5515 5508 5502 5495 5487 5478 5470 5460 5450 5439 5427 5417 5406 5394 5384 5373 5362 5351 5340 5329 5318 5307 5297 5288 5280 5272 5265 5258
5587 5581 5576 5570 5566 5560 5555 5550 5544 5538 5533 5528 5523 5517 5511 5505 5498 5492 5486 5478 5471 5463 5454 5444 5434 5423 5413 5402 5392 5382 5371 5361 5351 5340 5330 5319 5309 5300 5291 5282 5275 5268 5261